Simultaneous Nadir Overpasses (SNOs) Predictions

Prediction of SNOs between AURA and NPP Satellite Orbit:

Table of predicted SNOs for the next 14.0 days since TLE Epoch: 8/6/2016
Index Date (AURA) Time (AURA) Lat,Lon (AURA) SZA (AURA ) Date (NPP) Time (NPP) Lat,Lon (NPP) SZA (NPP ) Distance(km) Time Diff (sec)
1 08/07/2016 02:51:46 -79.26,-147.87 103.02 08/07/2016 02:51:35 -79.27,-147.82 103.03 1.02 11
2 08/07/2016 03:41:06 79.49, 21.26 76.66 08/07/2016 03:42:13 79.47, 21.13 76.64 3.01 67
3 08/09/2016 18:18:53 79.05, 159.07 78.01 08/09/2016 18:17:49 79.06, 159.13 78.04 1.35 64
4 08/09/2016 19:08:14 -79.30, -31.72 102.35 08/09/2016 19:08:28 -79.29, -31.84 102.33 2.57 14
5 08/12/2016 10:35:21 79.09, -84.85 78.73 08/12/2016 10:34:42 79.08, -84.92 78.77 1.62 39
6 08/12/2016 11:24:38 -79.45, 85.16 101.80 08/12/2016 11:25:16 -79.45, 85.19 101.83 0.76 38
7 08/15/2016 02:51:44 79.27, 32.20 79.25 08/15/2016 02:51:29 79.28, 32.30 79.24 2.29 15
8 08/15/2016 03:41:06 -79.48,-158.77 101.05 08/15/2016 03:42:09 -79.48,-158.85 101.08 1.88 63
9 08/17/2016 18:18:55 -78.96, -21.51 99.51 08/17/2016 18:17:48 -78.95, -21.63 99.43 2.64 67




NCC Satellite Simultaneous Nadir Overpasses (SNOs) Prediction Service
